Regional Weather Roundup
Issued by NWS

Home | Current Version | Previous Version | Text Only | Print | Product List | Glossary On
Versions: 1 2 3 4 5 6 7 8 9 10 11 12 13 14 15 16 17 18 19 20 21 22 23 24 25 26 27 28 29 30 31 32 33 34 35 36 37 38 39 40 41 42 43 44 45 46 47 48 49 50
000
ASUS43 KMPX 271410
RWRMN
WEATHER ROUNDUP FOR MINNESOTA
NATIONAL WEATHER SERVICE TWIN CITIES/CHANHASSEN MN
900 AM CDT THU APR 27 2017


NOTE: "FAIR" INDICATES FEW OR NO CLOUDS BELOW 12,000 FEET WITH NO
SIGNIFICANT WEATHER AND/OR OBSTRUCTIONS TO VISIBILITY. N/A MEANS
CURRENT SKY AND/OR WEATHER CONDITIONS ARE NOT AVAILABLE.

MNZ060>063-068>070-271500-
   Twin Cities Metro

CITY           SKY/WX    TMP DP  RH WIND       PRES   REMARKS
TWIN CITIES    CLOUDY    33  28  81 NW14      29.54S WCI  23
ST PAUL        CLOUDY    32  29  88 N14       29.55S WCI  22
CRYSTAL        CLOUDY    31  26  82 NW10      29.53S WCI  22
BLAINE         CLOUDY    34  30  86 NW10      29.53S WCI  26
LAKEVILLE      CLOUDY    34  34 100 NW13      29.53R WCI  25
EDEN PRAIRIE   CLOUDY    33  29  85 NW13G22   29.53S WCI  24
SOUTH ST PAUL  CLOUDY    33  32  96 N7        29.53S WCI  27
LAKE ELMO      CLOUDY    32  30  93 NW9       29.53S WCI  24
$$
MNZ001>005-007-008-013>017-022>024-027-028-271500-
   Northwest Minnesota

CITY           SKY/WX    TMP DP  RH WIND       PRES   REMARKS
BEMIDJI        CLOUDY    22  18  85 N13G20    29.61S WCI  10
HALLOCK        CLOUDY    30  23  74 N8        29.73F WCI  23
ROSEAU         CLOUDY    27  21  80 N10       29.69S WCI  17
WARROAD        PTSUNNY   27  21  80 N14G20    29.68F WCI  15
THIEF RVR FALL CLOUDY    28  22  78 N14       29.69F WCI  17
CROOKSTON      CLOUDY    27  23  86 N13       29.71F WCI  16
FOSSTON        CLOUDY    23  18  80 N15       29.66S WCI  10
DETROIT LAKES  CLOUDY    27  23  86 N8G17     29.64R WCI  18
MOORHEAD       MOSUNNY   25  21  86 N7        29.70S WCI  17
PARK RAPIDS    CLOUDY    24  14  65 N20G25    29.59S WCI  10
MAHNOMEN       CLOUDY    24  20  86 N3        29.65R
$$
MNZ006-009>011-018-025>026-271500-
   North Central Minnesota

CITY           SKY/WX    TMP DP  RH WIND       PRES   REMARKS
BAUDETTE       CLOUDY    24  15  68 N10       29.64S WCI  14
FLAG ISLAND    CLOUDY    25  19  80 N20       29.67F WCI  11
INTL FALLS     CLOUDY    23  14  68 N9        29.60F WCI  13
WASKISH        CLOUDY    25  18  74 N10       29.63S WCI  15
BIG FORK       FLURRIES  23  16  74 N10       29.58F WCI  12
LONGVILLE      CLOUDY    23  18  80 N7        29.58S WCI  15
GRAND RAPIDS   CLOUDY    22  17  81 N16       29.56F WCI   8
CRANE LAKE     CLOUDY    21  14  73 N7G16     29.58F WCI  13
ORR            CLOUDY    21  12  68 NW8       29.53F WCI  12
COOK           FLURRIES  21  16  79 N3        29.54F
WALKER         CLOUDY    22  15  72 N13       29.59S WCI  10
$$
MNZ012-019>021-037-271500-
   Northeast Minnesota

CITY           SKY/WX    TMP DP  RH WIND       PRES   REMARKS
DULUTH         CLOUDY    24  20  84 N13       29.49S WCI  12
ELY            FLURRIES  19  14  79 N9G16     29.50F WCI   9
HIBBING        CLOUDY    21  16  81 N13       29.52F WCI   9
EVELETH        CLOUDY    22  17  78 N8        29.52F WCI  13
DULUTH HARBOR  CLOUDY    28  23  80 N10       29.54F WCI  19
TWO HARBORS    CLOUDY    27  21  80 N7        29.49F WCI  19
SILVER BAY     CLOUDY    25  21  86 N5        29.48F WCI  19
GRAND MARAIS     N/A     25  20  81 VRB5      29.49F WCI  19
G MARAIS ARPRT CLOUDY    18  12  79 N5        29.42F WCI  11
$$
MNZ029>031-032-039>041-046>048-054>057-064-271500-
   West Central Minnesota

CITY           SKY/WX    TMP DP  RH WIND       PRES   REMARKS
FERGUS FALLS   CLOUDY    27  21  80 N12G21    29.65S WCI  16
WHEATON        CLOUDY    28  21  74 NW18      29.68F WCI  16
MORRIS         CLOUDY    28  25  86 N17G23    29.62R WCI  16
ALEXANDRIA     CLOUDY    27  20  75 N15       29.59S WCI  15
ELBOW LAKE     CLOUDY    28  24  87 W16       29.62F WCI  15
WADENA         CLOUDY    25  19  80 N10       29.59S WCI  15
GLENWOOD       CLOUDY    28  21  74 N13       29.59S WCI  18
APPLETON       CLOUDY    30  25  80 NW15G24   29.63S WCI  19
BENSON         CLOUDY    30  25  80 N18       29.62S WCI  18
ORTONVILLE     CLOUDY    28  23  80 NW16G22   29.65S WCI  17
MADISON        CLOUDY    32  27  80 NW21      29.64S WCI  20
WILLMAR        CLOUDY    30  28  93 N13       29.60S WCI  20
$$
MNZ033>034-036-042>043-049>051-058-059-271500-
   Central Minnesota

CITY           SKY/WX    TMP DP  RH WIND       PRES   REMARKS
ST CLOUD       CLOUDY    29  25  85 N9        29.56S WCI  20
SAUK CENTRE    CLOUDY    27  22  80 N12       29.59S WCI  17
PAYNESVILLE    CLOUDY    29  28  95 N10       29.59S WCI  20
AITKIN         MIX PCPN  27  19  74 NW7       29.54S WCI  19
PINE RIVER     CLOUDY    25  19  80 N10       29.61S WCI  15
BRAINERD       CLOUDY    25  18  74 N9        29.57S WCI  15
STAPLES        CLOUDY    25  19  80 N8        29.59S WCI  16
LONG PRAIRIE   CLOUDY    27  23  86 CALM      29.58S
LITTLE FALLS   CLOUDY    28  23  80 NW8       29.58S HAZE    WCI  20
LITCHFIELD     CLOUDY    30  27  86 N13       29.58R WCI  20
BUFFALO        CLOUDY    31  25  79 NW12      29.57S WCI  22
MAPLE LAKE     CLOUDY    31  28  89 NW8       29.57S WCI  24
HUTCHINSON     CLOUDY    32  29  87 NW15      29.58S WCI  22
$$
MNZ037-044-045-052-053-271500-
   East Central Minnesota

CITY           SKY/WX    TMP DP  RH WIND       PRES   REMARKS
PRINCETON      CLOUDY    30  25  80 NW9       29.55S WCI  22
MORA           CLOUDY    27  23  86 NW7       29.55F WCI  19
CAMBRIDGE      CLOUDY    30  25  80 NW7       29.53S WCI  23
RUSH CITY      CLOUDY    28  24  84 N9        29.54S WCI  19
MOOSE LAKE     CLOUDY    27  21  80 N7        29.52S WCI  19
HINCKLEY       CLOUDY    28  23  80 N12       29.54S WCI  18
CLOQUET        CLOUDY    23  19  86 NW13      29.51S WCI  11
MCGREGOR       CLOUDY    27  23  86 NW9       29.54F WCI  17
$$
MNZ071>073-080-081-089-090-097-098-271500-
   Southwest Minnesota

CITY           SKY/WX    TMP DP  RH WIND       PRES   REMARKS
MONTEVIDEO     CLOUDY    28  27  93 N18       29.62S WCI  16
GRANITE FALLS  CLOUDY    32  28  86 NW16G24   29.64S WCI  21
CANBY          CLOUDY    31  25  78 W17G25    29.66R WCI  19
MARSHALL       CLOUDY    29  24  82 NW22G28   29.63S WCI  15
REDWOOD FALLS  CLOUDY    31  27  85 NW12      29.60R WCI  22
OLIVIA         CLOUDY    32  30  93 NW14G23   29.58S WCI  22
PIPESTONE      CLOUDY    30  21  69 NW10G21   29.62S WCI  21
WINDOM         CLOUDY    30  25  80 NW23      29.60S WCI  17
WORTHINGTON    CLOUDY    28  22  78 NW22G28   29.62F WCI  14
JACKSON        CLOUDY    30  27  86 NW20      29.61R WCI  18
TRACY          CLOUDY    30  26  86 NW16G22   29.62S WCI  19
SLAYTON        CLOUDY    28  24  84 NW14      29.62S WCI  17
$$
MNZ065>067-074>077-082>085-091>093-271500-
   South Central Minnesota

CITY           SKY/WX    TMP DP  RH WIND       PRES   REMARKS
MANKATO        LGT RAIN  33  28  81 NW15      29.57R WCI  23
NEW ULM        CLOUDY    30  28  93 NW20      29.58S WCI  18
ST JAMES       CLOUDY    30  28  93 W22       29.60R WCI  17
FAIRMONT       CLOUDY    31  27  85 NW22      29.60R WCI  18
GLENCOE        CLOUDY    32  32  99 NW10      29.56S WCI  24
FARIBAULT      CLOUDY    34  30  86 NW10G18   29.54S WCI  26
OWATONNA       CLOUDY    34  28  80 W17       29.55R WCI  23
WASECA         CLOUDY    32  30  93 NW16      29.57R WCI  21
ALBERT LEA     CLOUDY    32  28  86 NW9G20    29.55R WCI  24
$$
MNZ078>079-086>088-094>096-271500-
   Southeast Minnesota

CITY           SKY/WX    TMP DP  RH WIND       PRES   REMARKS
ROCHESTER      CLOUDY    34  33  96 NW14      29.52R FOG     WCI  25
RED WING       CLOUDY    36  28  75 N6        29.52R
STANTON        CLOUDY    36  33  87 NW10      29.52R
DODGE CENTER   LGT SNOW  34  30  86 W14       29.52R WCI  24
WINONA         CLOUDY    36  34  93 NW9       29.52R FOG
AUSTIN         CLOUDY    34  28  80 W16       29.53S WCI  23
PRESTON        LGT SNOW  33  32  96 NW13      29.52R WCI  24
$$
ABBREVIATIONS USED IN REMARKS
   TC - TEMPERATURES IN CELSIUS
  WCI - WIND CHILL INDEX
   HX - HEAT INDEX
  VSB - VISIBILITY
$$



USA.gov is the U.S. government's official web portal to all federal, state and local government web resources and services.